OBJECT U, 63228

Orbit data source: Space-Track

You're viewing an Uncataloged Satellite

Recently launched and/or uncataloged satellites may have evolving metadata. Metadata may include but not limited to: Owner, Maufacturer, Bus, Motor, and Mission.

OBJECT U, 63228 is a satellite in SSO that was launched on Sat, 15 Mar 2025 UTC via an FALCON 9 launch vehicle from the Air Force Western Test Range (AFWTR). Unknown objects in Earth's orbit typically refer to objects detected orbiting the Earth but have not yet been identified or cataloged. These objects could be anything from previously untracked satellites, spent rocket stages, debris from satellite collisions, or even natural meteoroids temporarily captured by Earth's gravity.

Loading next visibility...
Identifier
63228, 2025-052U
Orbit
SSO
Country
Flag of TBDTBD
Related business
None
Manufacturer
Unknown
Mission
Operational Commercial Technology
Bus & Motor
Unknown
Mass
Unknown
Launch date (UTC)
2025-03-15 (1 year ago)
Launch vehicle
FALCON 9
Launch site
Air Force Western Test Range (AFWTR)
Object type
Unknown
Shape & HBR
Box, 1.1 m
Radar Cross Section
0.054 m², Small (<0.1 m²)

Expand to show TLE details & history
Last TLE update: 19 hours ago

TLE from 19 hours ago
0 OBJECT U
1 63228U 25052U   26120.66893703  .00006067  00000-0  26038-3 0  9999
2 63228  97.3981  14.1365 0004047 336.8353  23.2701 15.23070819 62634
Epoch: 2026-04-30T16:03Z
TLE epoch observation values (Epoch: 2026-04-30T16:03:16.159Z)
Latitude
0.00001°
Longitude
-85.29306°
Altitude
497.123 km
Speed
7.617 km/s
True Right ascension
00h 56m 32s
True Declination
0° 00' 00"
Sunlit
Object was in daylight at epoch
Visualization orbit readout
Latitude
Unknown
Longitude
Unknown
Altitude
Unknown
Speed
Unknown
Apparent Right ascension
Unknown
Apparent Declination
Unknown
Sunlit
N/A
Visualization observer readout
Local Sidereal Time
18:12:35
Azimuth
Unknown
Elevation
Unknown
Doppler factor
Unknown
Orbital elements
Apogee altitude
496.327 km
Perigee altitude
490.765 km
Semi-major axis
6,871.683 km
Eccentricity
0.0004
Inclination
97.3981°
RAAN
14.1365°
Arg. of periapsis
336.8353°
True anomaly
23.28843°
Mean anomaly
23.2701°
Eccentric anomaly
23.27926°
Mean motion
3.81021 °/min
Orbital period
94.48 mins
BSTAR
0.00026038
Loading maneuver chart data...
Computing Atmospheric mass density...
Loading historical data...
Loading historical data...
Loading historical data...
Loading historical data...
Loading historical data...
Loading historical data...
Loading historical data...

Documentation

Showing up to 5 results
|